STARLINK-32767, 62601

Orbit data source: Space-Track

STARLINK-32767, 62601 is a payload satellite owned by SpaceX/Seattle (US) in LEO that was launched on Mon, 13 Jan 2025 UTC via an FALCON 9 launch vehicle from the Air Force Eastern Test Range (AFETR). Payload-class satellites include a variety of spacecraft equipped with specific instruments for various scientific and technological missions. These include communications satellites like Starlink; space stations such as the ISS; scientific satellites like the Hubble; Earth observation satellites from companies like Planet Labs, Umbra, and HawkEye 360; GPS; miniature CubeSats for education and research; and military/defense satellites.

Loading next visibility...
Identifier
62601, 2025-008Q
Orbit
LEO
Last TLE update
7 hours ago
Origin
Manufacturer
SpaceX/Seattle
Mission
Operational Commercial Communications
Bus & Motor
STARLINK V2M, Unknown motor
Mass
730 kg wet, ~700 kg dry
Launch date (UTC)
2025-01-13 (6 months ago)
Launch vehicle
FALCON 9
Launch site
Air Force Eastern Test Range (AFETR)
Object type
Payload
Rocket body
Debris
Shape & HBR
Box + 2 Pan, 29 m
Radar Cross Section
33.884 m², Large (>1 m²)

Expand to show TLE details & history

TLE from 7 hours ago
0 STARLINK-32767
1 62601U 25008Q   25182.91661881  .00019402  00000-0  71244-3 0  9995
2 62601  43.0022 254.0064 0001596 273.5153  86.5517 15.27592787 27279
Epoch: 2025-07-01T21:59Z
TLE epoch observation values (Epoch: 2025-07-01T21:59:55.865Z)
Latitude
0.00005°
Longitude
3.81848°
Altitude
482.721 km
Speed
7.626 km/s
True Right ascension
16h 56m 01s
True Declination
0° 00' 00"
Sunlit
Object was in full shadow at epoch
Visualization orbit readout
Latitude
-40.16373°
Longitude
-113.7586°
Altitude
494.096 km
Speed
7.619 km/s
Apparent Right ascension
07h 09m 23s
Apparent Declination
-44° 01' 34"
Sunlit
Object is in daylight
Visualization observer readout
Local Sidereal Time
17:03:35
Azimuth
249.609° W
Elevation
-66.408°
Doppler factor
1
Orbital elements
Apogee altitude
486.051 km
Perigee altitude
483.86 km
Semi-major axis
6,863.093 km
Eccentricity
0.00016
Inclination
43.0022°
RAAN
254.0064°
Arg. of periapsis
273.5153°
True anomaly
Unknown
Mean anomaly
86.5517°
Eccentric anomaly
Unknown
Mean motion
3.81736 °/min
Orbital period
94.31 mins
BSTAR
0.00071244
Loading maneuver chart data...
Loading SW <> Apogee altitude chart data...
Loading historical data...
Loading historical data...
Loading historical data...
Loading historical data...
Loading historical data...
Loading historical data...
Loading historical data...

STARLINK-32767 Visibility forecast

Observer location: undefined°, undefined°

Span
Click to sort rows by Start time (UTC) header in descending order
Start Az.
Max El. time (UTC)
Max El. Az.
Max El.
End time (UTC)
End Az.
5 mins2025-07-02 07:36:02.462Z195.001° SSW2025-07-02 07:39:02.462Z136.055° SSE20.792°2025-07-02 07:41:02.462Z99.05° ESE
6 mins2025-07-02 09:15:02.462Z251.057° W2025-07-02 09:17:02.462Z251.761° W44.204°2025-07-02 09:21:02.462Z71.977° E
6 mins2025-07-02 10:54:02.462Z288.395° WNW2025-07-02 10:56:02.462Z334.239° NNW36.861°2025-07-02 11:00:02.462Z76.445° E
6 mins2025-07-02 12:33:02.462Z289.907° WNW2025-07-02 12:36:02.462Z87.784° E42.671°2025-07-02 12:39:02.462Z105.021° ESE
4 mins2025-07-02 14:13:02.462Z245.513° WSW2025-07-02 14:14:02.462Z220.621° SW23.692°2025-07-02 14:17:02.462Z158.883° S
|